Hourly Weather Roundup
Issued by NWS Central Illinois

Home | Current Version | Previous Version | Text Only | Print | Product List | Glossary On
Versions: 1 2 3 4 5 6 7 8 9 10 11 12 13 14 15 16 17 18 19 20 21 22 23 24 25 26 27 28 29 30 31 32 33 34 35 36 37 38 39 40 41 42 43 44 45 46 47 48 49 50
000
NZUS43 KILX 022210
HWRILX

AREA WEATHER ROUNDUP
NATIONAL WEATHER SERVICE, LINCOLN IL
500 PM CDT THU JUL 02 2015


CITY           SKY/WX    TMP DP  RH WIND       PRES   REMARKS
BLOOMINGTON    PTSUNNY   77  59  53 NE12      29.94S
CHAMPAIGN      PTSUNNY   75  61  61 N8        29.91F
DANVILLE       PTSUNNY   75  63  66 NE6       29.88F HAZE
DECATUR        CLOUDY    76  60  57 N7        29.90F
EFFINGHAM      PTSUNNY   77  63  61 N9        29.89S
FLORA          MOSUNNY   76  67  75 NE7       29.87S
GALESBURG      PTSUNNY   70  57  64 NE8       29.96F
JACKSONVILLE   CLOUDY    72  62  69 NE9       29.92F
LACON          PTSUNNY   72  58  61 NE6       29.94S
LAWRENCEVILLE  CLOUDY    76  68  76 N7        29.87R
LITCHFIELD     PTSUNNY   74  62  66 NE9       29.91R
$$


CITY           SKY/WX    TMP DP  RH WIND       PRES   REMARKS
LINCOLN        CLOUDY    75  59  57 NE6       29.93R
MACOMB         CLOUDY    69  59  70 NE8       29.98R
MATTOON        CLOUDY    75  64  68 NE8       29.88S
MT CARMEL AP   CLOUDY    79  66  65 NE5       29.86S HX  81
OLNEY-NOBLE AP CLOUDY    73  68  83 N7        29.87F
PARIS          PTSUNNY   78  67  67 N8        29.89F HX  80
PEORIA         PTSUNNY   76  58  53 NE7       29.94S
PONTIAC        MOSUNNY   75  61  62 NE12      29.95R
RANTOUL        PTSUNNY   78  61  55 E8        29.91F HX  80
ROBINSON       CLOUDY    76  68  74 N5        29.88R
SPRINGFIELD    CLOUDY    75  60  59 N7        29.92F
TAYLORVILLE    PTSUNNY   70  61  73 N8        29.91R
$$

...REGIONAL REPORTS...


CITY           SKY/WX    TMP DP  RH WIND       PRES   REMARKS
CHICAGO O`HARE MOSUNNY   66  53  63 NE12      29.99S
KANKAKEE       MOSUNNY   72  60  66 NE9G16    29.95S
MOLINE         CLOUDY    71  56  58 E9        29.97R
MOUNT STERLING NOT AVBL
MOUNT VERNON   CLOUDY    73  66  78 NE7       29.87S
PITTSFIELD     CLOUDY    70  60  70 N7        29.96R
QUINCY         CLOUDY    70  59  68 NE9       29.94S
ROCKFORD       CLOUDY    72  50  45 NE12      29.99F
$$


CITY           SKY/WX    TMP DP  RH WIND       PRES   REMARKS
BURLINGTON     CLOUDY    71  56  58 E6        29.95F
CEDAR RAPIDS   CLOUDY    70  54  56 NE8       29.97F
DES MOINES     LGT RAIN  69  51  52 CALM      29.99R
KIRKSVILLE     CLOUDY    71  58  63 NE7       29.96F
OTTUMWA        CLOUDY    70  53  54 NE7       29.96S
ST LOUIS       CLOUDY    78  63  59 NE9       29.89S HX  80
$$


CITY           SKY/WX    TMP DP  RH WIND       PRES   REMARKS
TERRE HAUTE    PTSUNNY   78  67  68 VRB3      29.87R HX  80
EVANSVILLE     CLOUDY    79  70  74 N8        29.84S HX  82
INDIANAPOLIS   PTSUNNY   78  62  57 NE10      29.86S HX  80
LAFAYETTE      MOSUNNY   75  62  64 NE9       29.91S
MADISON        SUNNY     71  48  43 E9        30.00F
MILWAUKEE      MOSUNNY   63  48  58 NE9       30.02F
$$




USA.gov is the U.S. government's official web portal to all federal, state and local government web resources and services.